Weather Roundup
Issued by NWS

Home | Current Version | Previous Version | Graphics & Text | Print | Product List | Glossary Off
Versions: 1 2 3 4 5 6 7 8 9 10 11 12 13 14 15 16 17 18 19 20 21 22 23 24 25 26 27 28 29 30 31 32 33 34 35 36 37 38 39 40 41 42 43 44 45 46 47 48 49 50

000
NZUS93 KARX 030459
HRRWXR

CURRENT HOURLY OBSERVATIONS ACROSS
MUCH OF THE UPPER MISSISSIPPI VALLEY
NATIONAL WEATHER SERVICE LA CROSSE WI
1100 PM CST MON MAR 02 2015


...SOUTHEAST MINNESOTA...


CITY           SKY/WX    TMP DP  RH WIND       PRES   REMARKS
ROCHESTER      CLOUDY    20  13  74 S13       30.08F WCI   7
ROCHESTER/MAYO CLOUDY    21  10  61 SE8       30.09F WCI  11
WINONA         MOCLDY    27  16  63 SE5       30.15F WCI  21
AUSTIN         CLOUDY    21  14  73 SE6       30.07F WCI  14
ALBERT LEA     CLOUDY    21  16  79 SE12      30.06F WCI   9
DODGE CENTER   CLOUDY    21  12  68 S12       30.06F WCI   9
PRESTON        CLOUDY    20  13  73 SE5       30.10F WCI  14
OWATONNA       CLOUDY    21  12  68 SE15      30.05F WCI   8
FARIBAULT      CLOUDY    21  14  73 SE7       30.06F WCI  13
$$

...ELSEWHERE IN MINNESOTA...


CITY           SKY/WX    TMP DP  RH WIND       PRES   REMARKS
MINNEAPOLIS    CLOUDY    21  11  65 SE7       30.09F WCI  12
INTNL FALLS    CLOUDY    24   8  50 S13G23    29.84F WCI  12
DULUTH         CLOUDY    20   4  50 S14       29.99F WCI   7
RED WING       CLOUDY    23   9  54 SE6       30.11F WCI  16
REDWOOD FALLS  CLOUDY    24  18  77 SE17      29.99F WCI  11
MANKATO        CLOUDY    21  12  68 SE12      30.04F WCI   9
FAIRMONT       CLOUDY    23  16  74 SE15      30.00F WCI  10
$$

...SOUTHWEST WISCONSIN...


CITY           SKY/WX    TMP DP  RH WIND       PRES   REMARKS
LA CROSSE      CLOUDY    26  14  60 S9        30.15F WCI  17
PRAIRIE DU CHI CLOUDY    25  15  65 SE6       30.18F WCI  18
BOSCOBEL       CLOUDY    26  16  65 VRB3      30.18F
LONE ROCK      NOT AVBL
PLATTEVILLE    CLOUDY    24  17  75 E7        30.17F WCI  16
FORT MC COY    CLOUDY    24  15  66 S5        30.18F WCI  19
VIROQUA        CLOUDY    22  15  75 SE8       30.13F WCI  13
WIS DELLS      NOT AVBL
$$

...ELSEWHERE IN WISCONSIN...


CITY           SKY/WX    TMP DP  RH WIND       PRES   REMARKS
MILWAUKEE      CLOUDY    26  17  68 S7        30.25F WCI  18
MADISON        CLOUDY    24  15  68 S8        30.20F WCI  15
GREEN BAY      CLOUDY    24  16  71 S6        30.23F WCI  17
EAU CLAIRE     NOT AVBL
BLACK RVR FLS  CLOUDY    26  11  54 S3        30.15F
MEDFORD        CLOUDY    20   8  59 S6        30.10F WCI  12
WAUSAU         CLOUDY    22   9  57 SE8       30.12F WCI  12
WIS RAPIDS     CLOUDY    24   9  52 S10       30.17F WCI  14
MARSHFIELD     CLOUDY    23  10  57 S9        30.12F WCI  13
RICE LAKE      CLOUDY    22   8  54 S9        30.10F WCI  12
$$

...NORTHEAST IOWA...


CITY           SKY/WX    TMP DP  RH WIND       PRES   REMARKS
DECORAH        CLOUDY    23  14  68 S9G15     30.12F WCI  13
MASON CITY     CLOUDY    22  15  75 SE15      30.07F WCI   9
CHARLES CITY   CLOUDY    23  16  74 SE15      30.10F WCI  10
OELWEIN        CLOUDY    23  18  80 SE14      30.13F WCI  11
$$

...ELSEWHERE IN IOWA...


CITY           SKY/WX    TMP DP  RH WIND       PRES   REMARKS
DES MOINES     CLOUDY    29  18  63 SE13      30.06F WCI  19
IOWA CITY      FAIR      26  19  74 SE8       30.18F WCI  18
FORT DODGE     CLOUDY    27  18  69 SE10G16   30.03F WCI  17
$$

...NORTHERN ILLINOIS...


CITY           SKY/WX    TMP DP  RH WIND       PRES   REMARKS
CHICAGO-OHARE  CLOUDY    25  15  66 S6        30.26F WCI  18
CHICAGO-MIDWAY CLOUDY    28  14  55 S7        30.27F WCI  21
MOLINE         FAIR      27  18  69 SE9       30.21F WCI  18
ROCKFORD       CLOUDY    24  16  71 SE8       30.24F WCI  15
PEORIA         FAIR      28  16  60 SE9       30.23F WCI  19
$$

NOTE: "FAIR" INDICATES FEW OR NO CLOUDS BELOW 12,000 FEET WITH NO
SIGNIFICANT WEATHER AND/OR OBSTRUCTIONS TO VISIBILITY. WIND
SPEEDS ARE IN MILES-PER-HOUR.



USA.gov is the U.S. government's official web portal to all federal, state and local government web resources and services.